Regional Weather Roundup
Issued by NWS

Home | Current Version | Previous Version | Graphics & Text | Print | Product List | Glossary Off
Versions: 1 2 3 4 5 6 7 8 9 10 11 12 13 14 15 16 17 18 19 20 21 22 23 24 25 26 27 28 29 30 31 32 33 34 35 36 37 38 39 40 41 42 43 44 45 46 47 48 49 50

000
ASUS43 KTOP 312308
RWRKS

WEATHER ROUNDUP FOR KANSAS
NATIONAL WEATHER SERVICE GOODLAND KS
500 PM CST SAT JAN 31 2015

NOTE:  "FAIR" INDICATES FEW OR NO CLOUDS BELOW 12,000 FEET WITH NO
SIGNIFICANT WEATHER AND/OR OBSTRUCTIONS TO VISIBILITY.

KSZ001>006-013>018-027>032-041>047-010000-
NORTHWEST KANSAS

CITY           SKY/WX    TMP DP  RH WIND       PRES   REMARKS
GOODLAND       LGT SNOW  34  33  96 N12       29.78F FOG     WCI  25
HAYS           CLOUDY    39  30  70 S10       29.82F WCI  32
HILL CITY      LGT RAIN  40  38  93 S5        29.80F FOG
RUSSELL        CLOUDY    39  38  96 S9        29.82F
$$

KSZ061>065-074>080-084>089-010000-
SOUTHWEST KANSAS

CITY           SKY/WX    TMP DP  RH WIND       PRES   REMARKS
DODGE CITY     LGT RAIN  40  37  89 S13       29.81F WCI  32
ELKHART          N/A     45  35  68 SW9         N/A
GARDEN CITY    CLOUDY    40  38  93 S8        29.77F
LIBERAL        CLOUDY    43  36  75 S13       29.81F
PRATT          DRIZZLE   37  37 100 S14       29.86F WCI  29
$$

KSZ066>073-081>083-090>101-010000-
SOUTHEAST KANSAS

CITY           SKY/WX    TMP DP  RH WIND       PRES   REMARKS
CHANUTE        LGT RAIN  39  36  89 SE8       30.00S
COFFEYVILLE    LGT RAIN  41  36  82 SE5       30.00F
HUTCHINSON     LGT RAIN  40  37  89 S14       29.89S FOG     WCI  32
MEDICINE LODGE   N/A     40  40 100 S8        29.87F
NEWTON         CLOUDY    37  34  87 S17       29.91F WCI  28
PARSONS        LGT RAIN  41  37  86 SE5       30.00F
WICHITA INTL   LGT RAIN  40  38  93 S15       29.91F FOG     WCI  32
WICHITA JABRA  LGT RAIN  39  39 100 S17       29.91F WCI  30
WICHITA MCCONL LGT RAIN  39  38  96 SE15      29.92F WCI  31
WINFIELD       LGT RAIN  39  31  72 SE13      29.95F WCI  31
$$

KSZ007>012-019>026-033>040-048>060-102>105-010000-
NORTHEAST KANSAS

CITY           SKY/WX    TMP DP  RH WIND       PRES   REMARKS
CONCORDIA      LGT RAIN  33  33 100 SE10      29.88F FOG     WCI  25
EMPORIA        LGT RAIN  37  36  96 SE12      29.94F FOG     WCI  29
LAWRENCE       LGT RAIN  36  35  96 SE8       30.01F FOG
MANHATTAN      LGT RAIN  38  37  97 SE7       29.92F FOG
MARYSVILLE     LGT SNOW  32  32 100 SE10      29.92F WCI  24
OLATHE IND     LGT RAIN  36  34  92 SE12      30.02S FOG     WCI  28
OLATHE EXE     LGT RAIN  36  35  96 SE8       30.01S FOG
SALINA         RAIN      41  38  89 S9        29.89F FOG
TOPEKA BILLARD LGT RAIN  36  35  96 SE8       29.99F FOG
TOPEKA FORBES  LGT RAIN  38  36  92 SE9       29.97F FOG
$$



USA.gov is the U.S. government's official web portal to all federal, state and local government web resources and services.